Location: *
(58.4167°N, 22.5000°E)
Time: 13:47:29
(UTC+00:00)

Meteor 2-10 Rocket - Pass Details

Date: 22 September 2019
Orbit: 733 x 885 km, 81.2° (Epoch: 18 October)

Event Time Altitude Azimuth Distance (km) Brightness Sun altitude
Exits shadow 23:44:58 48° 305° (NW) 1,118 4.3 -29.2°
Drops below altitude 10° 23:50:05 10° 10° (N) 2,456 7.0 -29.0°
Sets 23:52:33 0° 16° (NNE) 3,370 8.0 -28.8°
